Regional Weather Roundup
Issued by NWS

Home | Current Version | Previous Version | Graphics & Text | Print | Product List | Glossary On
Versions: 1 2 3 4 5 6 7 8 9 10 11 12 13 14 15 16 17 18 19 20 21 22 23 24 25 26 27 28 29 30 31 32 33 34 35 36 37 38 39 40 41 42 43 44 45 46 47 48 49 50
000
ASUS45 KSLC 042310
RWRUT

UTAH REGIONAL WEATHER ROUNDUP
NATIONAL WEATHER SERVICE SALT LAKE CITY UT
400 PM MST WED MAR 04 2015

UTZ001>011-023>025-050000-

NORTHERN UTAH

CITY           SKY/WX    TMP DP  RH WIND       PRES   REMARKS
HILL AFB       MOSUNNY   36  13  38 SW2       30.22R
LOGAN          CLOUDY    36  16  44 CALM      30.21S
OGDEN          NOT AVBL
PROVO AIRPORT  NOT AVBL
SALT LAKE CITY NOT AVBL
VERNAL         NOT AVBL
WENDOVER       NOT AVBL
WEST JORDAN    SUNNY     36  18  48 N6        30.24R WCI  31

$$

UTZ012>022-026-027-050000-

SOUTHERN/CENTRAL UTAH

CITY           SKY/WX    TMP DP  RH WIND       PRES   REMARKS
CEDAR CITY     NOT AVBL
MILFORD        NOT AVBL
MOAB/CYNLANDS  NOT AVBL
PRICE          NOT AVBL
ST GEORGE      NOT AVBL
KANAB          SUNNY     46  19  34 NW6       30.17R

$$

REGIONAL REPORTS     COLORADO/ARIZONA

CITY           SKY/WX    TMP DP  RH WIND       PRES   REMARKS
CRAIG, CO      NOT AVBL
GRAND JUNCTION NOT AVBL
RIFLE          NOT AVBL
MONTROSE       NOT AVBL
CORTEZ         NOT AVBL
PAGE, AZ       NOT AVBL
GRAND CANYON   NOT AVBL
KINGMAN        SUNNY     54  25  32 N18G24    30.10S
FLAGSTAFF      NOT AVBL

$$

REGIONAL REPORTS    NEVADA/IDAHO/WYOMING

CITY           SKY/WX    TMP DP  RH WIND       PRES   REMARKS
LAS VEGAS, NV  NOT AVBL
ELY            NOT AVBL
ELKO           NOT AVBL
POCATELLO, ID  NOT AVBL
EVANSTON, WY   NOT AVBL
ROCK SPRINGS   NOT AVBL

$$


USA.gov is the U.S. government's official web portal to all federal, state and local government web resources and services.